Hourly Weather Roundup
Issued by NWS Central Illinois

Home | Current Version | Previous Version | Text Only | Print | Product List | Glossary On
Versions: 1 2 3 4 5 6 7 8 9 10 11 12 13 14 15 16 17 18 19 20 21 22 23 24 25 26 27 28 29 30 31 32 33 34 35 36 37 38 39 40 41 42 43 44 45 46 47 48 49 50
000
NZUS43 KILX 231310
HWRILX

Area Weather Roundup
National Weather Service Lincoln IL
800 AM CDT SUN APR 23 2017

NOTE:  "FAIR" indicates few or no clouds below 12,000 feet, with
       no sigificant weather and/or obstructions to visibility.


CITY           SKY/WX    TMP DP  RH WIND       PRES   REMARKS
Bloomington    SUNNY     46  31  55 NE9       30.15S
Champaign      SUNNY     50  30  46 NE9       30.13R
Danville       SUNNY     47  32  54 NE9       30.11R
Decatur        SUNNY     47  34  60 NE12      30.13R
Effingham      SUNNY     46  35  63 N7        30.10S
Flora          MOSUNNY   48  36  63 N13       30.07R
Galesburg      SUNNY     45  38  75 CALM      30.16S
Jacksonville   SUNNY     46  31  56 N6        30.15S
Lacon          SUNNY     44  38  79 N3        30.16S
Lawrenceville  SUNNY     47  37  68 NE15      30.06R
Litchfield     SUNNY     45  33  62 N7        30.11S
$$


CITY           SKY/WX    TMP DP  RH WIND       PRES   REMARKS
Lincoln        SUNNY     50  32  51 NE7       30.14F
Macomb         SUNNY     47  34  60 N3        30.19R
Mattoon        SUNNY     46  35  65 NE10      30.10R
Mt Carmel AP   SUNNY     47  35  63 NE16      30.04S
Olney-Noble AP SUNNY     46  38  73 NE10      30.07R
Paris AP       SUNNY     46  35  63 NE9       30.11S
Peoria         SUNNY     48  34  58 NE5       30.16S
Pontiac        SUNNY     46  33  58 CALM      30.16F
Rantoul        SUNNY     48  33  56 NE7       30.13F
Robinson       MOSUNNY   46  36  68 NE10      30.08R
Springfield    SUNNY     48  32  53 NE5       30.14S
Taylorville    SUNNY     45  31  57 NE8       30.13S
$$

...REGIONAL REPORTS...


CITY           SKY/WX    TMP DP  RH WIND       PRES   REMARKS
Chicago O`Hare MOSUNNY   50  28  42 W3        30.15R
Kankakee       SUNNY     50  33  52 CALM      30.15F
Moline         SUNNY     45  40  82 CALM      30.17R
Mount Sterling SUNNY     45  32  61 N5        30.15S
Mount Vernon   SUNNY     47  36  65 NE8       30.06R
Pittsfield     SUNNY     47  32  54 N6        30.16S
Quincy         SUNNY     47  34  60 NE6       30.15F
Rockford       SUNNY     44  37  76 CALM      30.18S
$$


CITY           SKY/WX    TMP DP  RH WIND       PRES   REMARKS
Burlington     SUNNY     50  40  68 CALM      30.17R
Cedar Rapids   SUNNY     48  37  65 SW3       30.15S
Des Moines     SUNNY     49  33  54 CALM      30.17R
Kirksville     SUNNY     47  38  71 NW3       30.18R
Ottumwa        SUNNY     46  37  71 CALM      30.17R
St Louis       MOSUNNY   50  32  50 NE7       30.12R
$$


CITY           SKY/WX    TMP DP  RH WIND       PRES   REMARKS
Terre Haute    SUNNY     47  34  60 NE10      30.08R
Evansville     MOSUNNY   50  38  63 NE14      30.00S
Indianapolis   MOSUNNY   48  34  58 NE14      30.08R
Lafayette      SUNNY     47  35  63 N9        30.13R
Madison        MOSUNNY   50  38  63 S5        30.12F
Milwaukee      SUNNY     54  26  34 W7        30.13S
$$





USA.gov is the U.S. government's official web portal to all federal, state and local government web resources and services.